Location: Poughquag
(41.6090°N, 73.6820°W)
Time: 14:35:26
(UTC-05:00)

Vanguard 1 - Pass Details

Date: 06 December 2023
Orbit: 653 x 3825 km, 34.3° (Epoch: 03 March)

Event Time Altitude Azimuth Distance (km) Brightness Sun altitude
Rises 18:51:25 0° 254° (WSW) 5,807 15.3 -26.7°
Reaches altitude 10° 18:54:36 10° 252° (WSW) 5,139 14.7 -27.3°
Maximum altitude 19:11:14 69° 173° (S) 3,612 12.7 -30.4°
Enters shadow 19:21:43 42° 107° (ESE) 4,720 12.9 -32.4°
Drops below altitude 10° 19:34:38 10° 97° (E) 6,869 - -34.8°
Sets 19:39:45 0° 96° (E) 7,757 - -35.7°
